When you browse on this site, cookies collect data to enhance your experience and personalize the content and advertising you see.
Visit our Privacy Policy to learn more. By continuing to use the site, you agree to this use of cookies and data.
  • In United Kingdom
  • List of Countries
  • For 7 days
  • Water Temperature
  • Weather Map
  • Weather Widgets
  • user-avatar
    Login

    Hourly Weather Pechykhvosty

    Today, 20 September, Friday

    Time Temperature Precipitation Wind Pressure Humidity
    00:00 +4°C° 0 mm 3 mps 744 mmHg 88%
    01:00 +4°C° 0 mm 3 mps 744 mmHg 88%
    02:00 +4°C° 0 mm 4 mps 744 mmHg 89%
    03:00 +4°C° 0 mm 4 mps 744 mmHg 90%
    04:00 +3°C° 0 mm 3 mps 744 mmHg 92%
    05:00 +3°C° 0 mm 3 mps 744 mmHg 94%
    06:00 +3°C° 0 mm 4 mps 744 mmHg 90%
    07:00 +3°C° 0 mm 5 mps 744 mmHg 87%
    08:00 +5°C° 0 mm 5 mps 745 mmHg 83%
    09:00 +7°C° 0.2 mm 6 mps 745 mmHg 76%
    10:00 +8°C° 0.2 mm 6 mps 745 mmHg 68%
    11:00 +10°C° 0.2 mm 6 mps 745 mmHg 61%
    12:00 +10°C° 0.2 mm 7 mps 745 mmHg 57%
    13:00 +11°C° 0.2 mm 7 mps 745 mmHg 52%
    14:00 +12°C° 0.2 mm 7 mps 744 mmHg 48%
    15:00 +11°C° 0.1 mm 6 mps 744 mmHg 49%
    16:00 +11°C° 0.1 mm 6 mps 744 mmHg 50%
    17:00 +10°C° 0.1 mm 5 mps 744 mmHg 51%
    18:00 +8°C° 0 mm 4 mps 745 mmHg 56%
    19:00 +7°C° 0 mm 4 mps 745 mmHg 62%
    20:00 +5°C° 0 mm 3 mps 745 mmHg 68%
    21:00 +5°C° 0 mm 2 mps 745 mmHg 71%
    22:00 +5°C° 0 mm 2 mps 745 mmHg 74%
    23:00 +4°C° 0 mm 2 mps 746 mmHg 76%

    Tomorrow, 21 September, Saturday

    Time Temperature Precipitation Wind Pressure Humidity
    00:00 +4°C° 0 mm 2 mps 746 mmHg 79%
    01:00 +4°C° 0 mm 2 mps 746 mmHg 81%
    02:00 +4°C° 0 mm 2 mps 746 mmHg 83%
    03:00 +4°C° 0 mm 2 mps 746 mmHg 86%
    04:00 +3°C° 0 mm 2 mps 746 mmHg 88%
    05:00 +3°C° 0 mm 2 mps 745 mmHg 90%
    06:00 +4°C° 0 mm 3 mps 745 mmHg 83%
    07:00 +5°C° 0 mm 3 mps 745 mmHg 76%
    08:00 +6°C° 0 mm 4 mps 745 mmHg 69%
    09:00 +6°C° 0.2 mm 4 mps 745 mmHg 74%
    10:00 +6°C° 0.2 mm 4 mps 745 mmHg 78%
    11:00 +7°C° 0.2 mm 5 mps 745 mmHg 82%
    12:00 +8°C° 0.1 mm 5 mps 745 mmHg 81%
    13:00 +8°C° 0.1 mm 5 mps 745 mmHg 81%
    14:00 +9°C° 0.1 mm 5 mps 745 mmHg 80%
    15:00 +12°C° 0 mm 5 mps 745 mmHg 77%
    16:00 +13°C° 0 mm 5 mps 744 mmHg 74%
    17:00 +14°C° 0 mm 5 mps 744 mmHg 71%
    18:00 +13°C° 0 mm 5 mps 744 mmHg 74%
    19:00 +12°C° 0 mm 4 mps 744 mmHg 78%
    20:00 +11°C° 0 mm 4 mps 744 mmHg 82%
    21:00 +11°C° 0 mm 4 mps 744 mmHg 80%
    22:00 +11°C° 0 mm 4 mps 744 mmHg 79%
    23:00 +11°C° 0 mm 4 mps 744 mmHg 77%

    Day after tomorrow, 22 September, Sunday

    Time Temperature Precipitation Wind Pressure Humidity
    00:00 +10°C° 0 mm 4 mps 744 mmHg 78%
    01:00 +10°C° 0 mm 4 mps 744 mmHg 78%
    02:00 +8°C° 0 mm 4 mps 743 mmHg 79%
    03:00 +8°C° 0 mm 4 mps 743 mmHg 80%
    04:00 +8°C° 0 mm 3 mps 743 mmHg 81%
    05:00 +7°C° 0 mm 3 mps 743 mmHg 82%
    06:00 +8°C° 0 mm 3 mps 743 mmHg 79%
    07:00 +8°C° 0 mm 4 mps 743 mmHg 76%
    08:00 +10°C° 0 mm 4 mps 743 mmHg 73%
    09:00 +13°C° 0 mm 4 mps 743 mmHg 68%
    10:00 +15°C° 0 mm 4 mps 743 mmHg 63%
    11:00 +18°C° 0 mm 4 mps 743 mmHg 58%
    12:00 +19°C° 0 mm 4 mps 743 mmHg 56%
    13:00 +19°C° 0 mm 4 mps 742 mmHg 54%
    14:00 +20°C° 0 mm 4 mps 742 mmHg 52%
    15:00 +20°C° 0 mm 4 mps 742 mmHg 54%
    16:00 +19°C° 0 mm 3 mps 741 mmHg 57%
    17:00 +19°C° 0 mm 3 mps 741 mmHg 59%
    18:00 +17°C° 0 mm 2 mps 741 mmHg 64%
    19:00 +15°C° 0 mm 2 mps 741 mmHg 69%
    20:00 +13°C° 0 mm 2 mps 741 mmHg 74%
    21:00 +13°C° 0 mm 2 mps 741 mmHg 76%
    22:00 +12°C° 0 mm 1 mps 740 mmHg 77%
    23:00 +12°C° 0 mm 1 mps 740 mmHg 79%

    23 September, Monday

    Time Temperature Precipitation Wind Pressure Humidity
    00:00 +11°C° 0 mm 1 mps 740 mmHg 80%
    01:00 +11°C° 0 mm 1 mps 740 mmHg 82%
    02:00 +11°C° 0 mm 1 mps 740 mmHg 83%
    03:00 +10°C° 0 mm 1 mps 740 mmHg 84%
    04:00 +10°C° 0 mm 1 mps 740 mmHg 84%
    05:00 +10°C° 0 mm 1 mps 740 mmHg 85%
    06:00 +11°C° 0 mm 1 mps 740 mmHg 82%
    07:00 +12°C° 0 mm 2 mps 740 mmHg 79%
    08:00 +13°C° 0 mm 2 mps 740 mmHg 76%
    09:00 +15°C° 0 mm 2 mps 740 mmHg 68%
    10:00 +17°C° 0 mm 3 mps 740 mmHg 61%
    11:00 +19°C° 0 mm 3 mps 740 mmHg 54%
    12:00 +20°C° 0 mm 3 mps 740 mmHg 51%
    13:00 +21°C° 0 mm 3 mps 740 mmHg 48%
    14:00 +22°C° 0 mm 3 mps 739 mmHg 46%
    15:00 +21°C° 0 mm 2 mps 739 mmHg 49%
    16:00 +21°C° 0 mm 2 mps 739 mmHg 52%
    17:00 +20°C° 0 mm 2 mps 739 mmHg 56%
    18:00 +18°C° 0 mm 2 mps 738 mmHg 62%
    19:00 +16°C° 0 mm 2 mps 738 mmHg 69%
    20:00 +14°C° 0 mm 2 mps 738 mmHg 75%
    21:00 +13°C° 0 mm 2 mps 738 mmHg 78%
    22:00 +13°C° 0 mm 2 mps 738 mmHg 82%
    23:00 +12°C° 0 mm 1 mps 738 mmHg 86%

    24 September, Tuesday

    Time Temperature Precipitation Wind Pressure Humidity
    00:00 +12°C° 0 mm 2 mps 738 mmHg 86%
    01:00 +10°C° 0 mm 2 mps 738 mmHg 87%
    02:00 +10°C° 0 mm 2 mps 738 mmHg 88%
    03:00 +10°C° 0 mm 2 mps 738 mmHg 88%
    04:00 +10°C° 0 mm 3 mps 737 mmHg 88%
    05:00 +10°C° 0 mm 3 mps 737 mmHg 88%
    06:00 +10°C° 0 mm 3 mps 737 mmHg 84%
    07:00 +10°C° 0 mm 4 mps 737 mmHg 80%
    08:00 +11°C° 0 mm 4 mps 737 mmHg 76%
    09:00 +12°C° 0 mm 4 mps 738 mmHg 70%
    10:00 +14°C° 0 mm 4 mps 738 mmHg 64%
    11:00 +17°C° 0 mm 4 mps 738 mmHg 57%
    12:00 +18°C° 0 mm 4 mps 738 mmHg 55%
    13:00 +19°C° 0 mm 4 mps 738 mmHg 52%
    14:00 +20°C° 0 mm 4 mps 737 mmHg 49%
    15:00 +20°C° 0 mm 4 mps 737 mmHg 52%
    16:00 +19°C° 0 mm 4 mps 737 mmHg 54%
    17:00 +18°C° 0 mm 4 mps 737 mmHg 57%
    18:00 +17°C° 0 mm 4 mps 737 mmHg 62%
    19:00 +14°C° 0 mm 4 mps 737 mmHg 66%
    20:00 +12°C° 0 mm 3 mps 737 mmHg 71%
    21:00 +11°C° 0 mm 3 mps 738 mmHg 75%
    22:00 +10°C° 0 mm 3 mps 738 mmHg 78%
    23:00 +10°C° 0 mm 2 mps 738 mmHg 82%

    25 September, Wednesday

    Time Temperature Precipitation Wind Pressure Humidity
    00:00 +9°C° 0 mm 2 mps 738 mmHg 83%
    01:00 +9°C° 0 mm 2 mps 738 mmHg 85%
    02:00 +8°C° 0 mm 2 mps 738 mmHg 86%
    03:00 +8°C° 0 mm 2 mps 738 mmHg 87%
    04:00 +8°C° 0 mm 2 mps 738 mmHg 88%
    05:00 +7°C° 0 mm 2 mps 738 mmHg 89%
    06:00 +8°C° 0 mm 2 mps 738 mmHg 85%
    07:00 +9°C° 0 mm 2 mps 738 mmHg 81%
    08:00 +10°C° 0 mm 3 mps 738 mmHg 77%
    09:00 +11°C° 0 mm 3 mps 738 mmHg 70%
    10:00 +13°C° 0 mm 3 mps 738 mmHg 64%
    11:00 +16°C° 0 mm 3 mps 739 mmHg 58%
    12:00 +17°C° 0 mm 3 mps 738 mmHg 56%
    13:00 +18°C° 0 mm 3 mps 738 mmHg 54%
    14:00 +19°C° 0 mm 3 mps 738 mmHg 51%
    15:00 +18°C° 0 mm 3 mps 738 mmHg 54%
    16:00 +18°C° 0 mm 3 mps 738 mmHg 57%
    17:00 +18°C° 0 mm 3 mps 738 mmHg 60%
    18:00 +16°C° 0 mm 3 mps 738 mmHg 66%
    19:00 +14°C° 0 mm 4 mps 738 mmHg 71%
    20:00 +12°C° 0 mm 4 mps 738 mmHg 77%
    21:00 +12°C° 0 mm 4 mps 738 mmHg 80%
    22:00 +11°C° 0 mm 4 mps 738 mmHg 83%
    23:00 +11°C° 0 mm 4 mps 738 mmHg 86%
    Show more